Ketchikan, AK

12:54 PM AKST on November 21, 2017 (GMT -0900)
Ketchikan International

Weather History for PAKT - October, 2012

Change the Weather History Date:

Tuesday, October 30, 2012

  Actual Average Record
Temperature  
Mean Temperature 29 °F -  
Max Temperature 37 °F 47 °F 59 °F (1958)
Min Temperature 21 °F 36 °F 18 °F (1984)
Degree Days  
Heating Degree Days 36    
Moisture  
Dew Point 20 °F    
Average Humidity 71    
Maximum Humidity 86    
Minimum Humidity 50    
Precipitation  
Precipitation 0.00 in - - ()
Sea Level Pressure  
Sea Level Pressure 30.01 in    
Wind  
Wind Speed 2 mph (WNW)    
Max Wind Speed 8 mph    
Max Gust Speed -    
Visibility 10 miles    
Events      
Averages and records for this station are not official NWS values.
T = Trace of Precipitation, MM = Missing Value Source: NWS Daily Summary

Daily Weather History Graph

Daily Weather History Graph

Search for Another Location

Airport or City:

Trip Planner

Search our weather history database for the weather conditions in past years. The results will help you decide how hot, cold, wet, or windy it might be!

Date:

Astronomy

Oct. 30, 2012 Rise Set
Actual Time 7:48 AM AKDT 5:11 PM AKDT
Civil Twilight 7:10 AM AKDT 5:49 PM AKDT
Nautical Twilight 6:26 AM AKDT 6:32 PM AKDT
Astronomical Twilight 5:44 AM AKDT 7:15 PM AKDT
Moon 5:28 PM AKDT (10/30) 8:57 AM AKDT (10/30)
Length of Visible Light 10h 39m
Length of Day
9h 22m
Full, 99% of the Moon is Illuminated
Oct 30
Full
Nov 6
Last Quarter
Nov 13
New
Nov 20
First Quarter
Nov 28
Full

Hourly Weather History & Observations

Time (AKDT) Temp. Windchill Dew Point Humidity Pressure Visibility Wind Dir Wind Speed Gust Speed Precip Events Conditions
12:53 AM 25.0 °F 20.7 °F 16.0 °F 69% 30.02 in 10.0 mi WSW 3.5 mph - N/A   Clear
1:53 AM 26.1 °F - 18.0 °F 71% 30.04 in 10.0 mi Calm Calm - N/A   Clear
2:53 AM 24.8 °F 20.5 °F 17.6 °F 74% 30.04 in 10.0 mi West 3.5 mph - N/A   Clear
3:53 AM 21.9 °F - 17.1 °F 82% 30.06 in 10.0 mi Calm Calm - N/A   Clear
4:53 AM 23.0 °F - 16.0 °F 74% 30.06 in 10.0 mi Calm Calm - N/A   Clear
5:53 AM 24.1 °F - 19.0 °F 81% 30.06 in 10.0 mi Calm Calm - N/A   Clear
6:17 AM 21.2 °F - 17.6 °F 86% 30.06 in 10.0 mi Calm Calm - N/A   Clear
6:53 AM 23.0 °F 18.4 °F 19.0 °F 85% 30.06 in 10.0 mi SSW 3.5 mph - N/A   Clear
7:53 AM 21.9 °F - 17.1 °F 82% 30.08 in 10.0 mi Calm Calm - N/A   Clear
8:53 AM 25.0 °F - 19.9 °F 81% 30.08 in 10.0 mi Calm Calm - N/A   Clear
9:53 AM 30.9 °F - 23.0 °F 72% 30.07 in 10.0 mi Calm Calm - N/A   Clear
10:53 AM 34.0 °F - 21.0 °F 59% 30.06 in 10.0 mi Calm Calm - N/A   Clear
11:53 AM 35.1 °F 32.2 °F 21.9 °F 59% 30.05 in 10.0 mi North 3.5 mph - N/A   Clear
12:53 PM 37.0 °F 32.4 °F 19.9 °F 50% 30.03 in 10.0 mi NNW 5.8 mph - N/A   Clear
1:53 PM 37.0 °F 31.6 °F 21.0 °F 52% 30.01 in 10.0 mi NW 6.9 mph - N/A   Clear
2:53 PM 37.9 °F 32.1 °F 21.9 °F 53% 30.00 in 10.0 mi NNW 8.1 mph - N/A   Clear
3:53 PM 35.1 °F 31.0 °F 19.9 °F 54% 29.99 in 10.0 mi WNW 4.6 mph - N/A   Clear
4:53 PM 34.0 °F 31.0 °F 21.0 °F 59% 29.97 in 10.0 mi WNW 3.5 mph - N/A   Clear
5:53 PM 32.0 °F 27.5 °F 21.9 °F 66% 29.96 in 10.0 mi WNW 4.6 mph - N/A   Clear
6:53 PM 30.0 °F 26.5 °F 21.9 °F 72% 29.95 in 10.0 mi WNW 3.5 mph - N/A   Clear
7:53 PM 27.0 °F - 21.0 °F 78% 29.94 in 10.0 mi Calm Calm - N/A   Clear
8:53 PM 26.1 °F - 19.9 °F 78% 29.92 in 10.0 mi Calm Calm - N/A   Clear
9:53 PM 25.0 °F - 19.0 °F 78% 29.90 in 10.0 mi Calm Calm - N/A   Clear
10:53 PM 26.1 °F - 19.9 °F 78% 29.87 in 10.0 mi Calm Calm - N/A   Clear
11:53 PM 25.0 °F - 21.0 °F 85% 29.86 in 10.0 mi Calm Calm - N/A   Clear